Location: Bílinka
(49.3579°N, 14.3767°E)
Time: 01:33:10
(UTC+00:00)

Meteor 2-1 Rocket - Pass Details

Date: 28 January 2023
Orbit: 830 x 906 km, 81.3° (Epoch: 30 March)

Event Time Altitude Azimuth Distance (km) Brightness Sun altitude
Rises 17:27:25 0° 349° (NNW) 3,525 7.5 -15.6°
Reaches altitude 10° 17:29:55 10° 351° (N) 2,572 6.7 -16.0°
Maximum altitude 17:35:47 73° 77° (ENE) 920 4.2 -16.9°
Drops below altitude 10° 17:41:28 10° 162° (SSE) 2,503 6.5 -17.8°
Sets 17:43:52 0° 164° (SSE) 3,424 7.3 -18.2°
